Location: *
(51.5000°N, 0.1100°W)
Time: 20:09:34
(UTC+00:00)

Cosmos 1300 Rocket - Pass Details

Date: 25 May 2024
Orbit: 597 x 624 km, 82.5° (Epoch: 16 June)

Event Time Altitude Azimuth Distance (km) Brightness Sun altitude
Rises 01:39:04 0° 349° (NNW) 2,875 7.9 -14.1°
Reaches altitude 10° 01:41:18 10° 349° (N) 1,963 7.0 -14.0°
Maximum altitude 01:45:39 88° 262° (W) 609 3.5 -13.7°
Enters shadow 01:49:03 16° 172° (S) 1,584 5.2 -13.5°
